Retour au catalogue

STARLINK-3746

ActifCommunicationsVLEO
NORAD 52268·PAYLOAD·🇺🇸 United States

Lancé Apr 21, 2022 depuis Cape Canaveral Space Force Station

Loading…

Prochains Passages (prochaines 24 heures)

TLE

FraisSource: CelesTrak SupGP

Époque: Sep 15, 2026, 01:59 UTC

1 52268C 22041H   26258.08312500  .00043526  00000+0  12861-2 0  2581
2 52268  53.1595 324.7374 0001183  88.0011 109.6482 15.34366270    12

Suivez STARLINK-3746 en temps réel avec AllMySat

Download on the App Store